This is the latest recevied weather packets stored in our database for station/object KR8N. If no packets are shown the sender has not sent any weather packets the latest 10 day(s).
| Time | Temp. | Humidity | Pressure | Rain* | Wind** | Luminosity | Snow |
|---|---|---|---|---|---|---|---|
| 1778084367 | 17.22° C | 86% | 1013.9 hPa | 0 mm | - | 144 W/m² | - |
| 1778084066 | 16.67° C | 86% | 1013.9 hPa | 0 mm | - | 72 W/m² | - |
| 1778083763 | 16.67° C | 86% | 1013.8 hPa | 0 mm | - | 81 W/m² | - |
| 1778083460 | 16.67° C | 87% | 1013.7 hPa | 0 mm | - | 102 W/m² | - |
| 1778083157 | 16.67° C | 86% | 1014 hPa | 0 mm | - | 55 W/m² | - |
| 1778082855 | 16.67° C | 86% | 1013.6 hPa | 0 mm | - | 48 W/m² | - |
| 1778081736 | 16.67° C | 86% | 1013.7 hPa | 0 mm | - | 70 W/m² | - |
| 1778081434 | 16.67° C | 86% | 1013.7 hPa | 0 mm | - | 71 W/m² | - |
| 1778081131 | 16.67° C | 86% | 1013.7 hPa | 0 mm | - | 83 W/m² | - |
| 1778080829 | 16.67° C | 85% | 1013.4 hPa | 0 mm | - | 94 W/m² | - |
| 1778080526 | 16.67° C | 85% | 1013.6 hPa | 0 mm | - | 116 W/m² | - |
| 1778080223 | 16.67° C | 86% | 1013.3 hPa | 0 mm | - | 129 W/m² | - |
| 1778079920 | 16.67° C | 85% | 1013.4 hPa | 0 mm | - | 109 W/m² | - |
| 1778079617 | 16.67° C | 87% | 1013.3 hPa | 0 mm | - | 137 W/m² | - |
| 1778079313 | 16.67° C | 86% | 1013.4 hPa | 0 mm | - | 131 W/m² | - |
| 1778079011 | 16.67° C | 87% | 1013.6 hPa | 0 mm | - | 99 W/m² | - |
| 1778078707 | 16.67° C | 86% | 1013.4 hPa | 0 mm | - | 227 W/m² | - |
| 1778078405 | 16.67° C | 85% | 1013.6 hPa | 0 mm | - | 224 W/m² | - |
| 1778078102 | 17.22° C | 86% | 1013.6 hPa | 0 mm | - | 162 W/m² | - |
| 1778077801 | 17.22° C | 84% | 1013.4 hPa | 0 mm | - | 264 W/m² | - |
| 1778077498 | 16.67° C | 86% | 1013.5 hPa | 0 mm | - | 356 W/m² | - |
| 1778077196 | 16.67° C | 85% | 1013.7 hPa | 0 mm | - | 213 W/m² | - |
| 1778076893 | 16.67° C | 86% | 1013.4 hPa | 0 mm | - | 281 W/m² | - |
| 1778076592 | 16.67° C | 86% | 1013.4 hPa | 0 mm | - | 299 W/m² | - |
| 1778076288 | 16.67° C | 87% | 1013.4 hPa | 0 mm | - | 326 W/m² | - |
* Rain latest hour (hover to see other rain measurements)
** Current wind speed in m/s (hover to see current wind gust speed)